UTA783 ULLI-UUWW

Flight info

Callsign UTA783
Flight time N/A
Altitude 19000
Route SUGIN1A SUGIN T873 NIRGI T73 DESUD T834 BEKIP BEKIP3B
Aircraft AT76/M-SDFGIRY/S

Departure

Time 2026-05-04 17:29
Airport Pulkovo Airport (ULLI)

Arrival

Time N/A
Airport Vnukovo International Airport (UUWW)
Time Latitude Longitude Altitude Speed Heading
2026-05-04 16:14 59.80272 30.26555 0 ft 0 kts 285°
2026-05-04 17:23 59.80274 30.26544 0 ft 3 kts 285°
2026-05-04 17:23 59.80277 30.26520 53 ft 2 kts 287°
2026-05-04 17:24 59.80283 30.26479 70 ft 1 kts 286°
2026-05-04 17:24 59.80438 30.26617 69 ft 16 kts 108°
2026-05-04 17:25 59.80402 30.26848 65 ft 19 kts 107°
2026-05-04 17:25 59.80359 30.27136 66 ft 12 kts 106°
2026-05-04 17:26 59.80290 30.27607 72 ft 22 kts 104°
2026-05-04 17:26 59.80159 30.28475 71 ft 20 kts 102°
2026-05-04 17:27 59.80220 30.28700 71 ft 0 kts 49°
2026-05-04 17:27 59.80234 30.28733 70 ft 7 kts 48°
2026-05-04 17:28 59.80345 30.28776 72 ft 4 kts 284°
2026-05-04 17:29 59.80700 30.26072 492 ft 110 kts 287°
2026-05-04 17:29 59.80489 30.20487 1705 ft 158 kts 268°
2026-05-04 17:30 59.81828 30.14936 3426 ft 168 kts 294°
2026-05-04 17:31 59.82774 30.10459 4400 ft 180 kts 289°
2026-05-04 17:31 59.84107 30.03546 5774 ft 180 kts 285°
2026-05-04 17:32 59.84310 29.98777 6698 ft 179 kts 238°
2026-05-04 17:33 59.80903 29.95345 7967 ft 189 kts 202°
2026-05-04 17:33 59.79626 29.94647 8362 ft 191 kts 201°
2026-05-04 17:34 59.75952 29.96542 9583 ft 231 kts 118°
2026-05-04 17:34 59.75748 29.99724 9966 ft 240 kts 79°
2026-05-04 17:35 59.79258 30.04031 11119 ft 202 kts 329°
2026-05-04 17:35 59.81778 30.01655 11900 ft 202 kts 324°
2026-05-04 17:35 59.83028 30.00359 12302 ft 203 kts 323°
2026-05-04 17:36 59.84276 29.99031 12708 ft 204 kts 323°
2026-05-04 17:36 59.85524 29.97679 13132 ft 204 kts 321°
2026-05-04 17:36 59.86444 29.95728 13314 ft 198 kts 282°
2026-05-04 17:36 59.86195 29.92931 13001 ft 225 kts 239°
2026-05-04 17:37 59.84854 29.91346 13326 ft 238 kts 196°
2026-05-04 17:37 59.83128 29.91211 13411 ft 253 kts 180°
2026-05-04 17:37 59.81375 29.91909 13454 ft 264 kts 175°
2026-05-04 17:37 59.79601 29.92875 13753 ft 266 kts 167°
2026-05-04 17:38 59.78166 29.94750 15035 ft 232 kts 137°
2026-05-04 17:38 59.77047 29.97278 14873 ft 261 kts 142°
2026-05-04 17:38 59.75837 29.99885 15611 ft 246 kts 133°
2026-05-04 17:38 59.75038 30.02682 16589 ft 227 kts 118°
2026-05-04 17:39 59.74264 30.09299 15387 ft 275 kts 142°
2026-05-04 17:39 59.72835 30.11994 15809 ft 269 kts 140°
2026-05-04 17:39 59.71938 30.14814 17399 ft 232 kts 111°
2026-05-04 17:40 59.72045 30.18173 16896 ft 278 kts 59°
2026-05-04 17:40 59.73795 30.20338 14444 ft 338 kts 353°
2026-05-04 17:40 59.73941 30.20329 14319 ft 0 kts 348°